Kahului, HI

8:53 PM HST on February 19, 2018 (GMT -1000)
Kahului

Weather History for PHOG - September, 2013

Change the Weather History Date:

Monday, September 16, 2013

  Actual Average Record
Temperature  
Mean Temperature 83 °F 79 °F  
Max Temperature 90 °F 88 °F 94 °F (1996)
Min Temperature 75 °F 70 °F 62 °F (2009)
Degree Days  
Heating Degree Days 0 0  
Month to date heating degree days 0 0  
Since 1 July heating degree days 0 0  
Cooling Degree Days 18 14  
Month to date cooling degree days 251 226  
Year to date cooling degree days 3038 2768  
Growing Degree Days 32 (Base 50)    
Moisture  
Dew Point 68 °F    
Average Humidity 63    
Maximum Humidity 82    
Minimum Humidity 43    
Precipitation  
Precipitation 0.01 in 0.01 in 0.33 in (1963)
Month to date precipitation 0.10 0.18  
Year to date precipitation 8.76 10.88  
Snow  
Snow 0.00 in - - ()
Month to date snowfall 0.0  
Since 1 July snowfall 0.0  
Since 1 September snowfall 0.0  
Snow Depth 0.00 in    
Sea Level Pressure  
Sea Level Pressure 30.02 in    
Wind  
Wind Speed 18 mph (NE)    
Max Wind Speed 35 mph    
Max Gust Speed 41 mph    
Visibility 10 miles    
Events Rain    
T = Trace of Precipitation, MM = Missing Value Source: NWS Daily Summary

Daily Weather History Graph

Daily Weather History Graph

Search for Another Location

Airport or City:

Trip Planner

Search our weather history database for the weather conditions in past years. The results will help you decide how hot, cold, wet, or windy it might be!

Date:

Astronomy

Sep. 16, 2013 Rise Set
Actual Time 6:13 AM HST 6:27 PM HST
Civil Twilight 5:51 AM HST 6:49 PM HST
Nautical Twilight 5:25 AM HST 7:15 PM HST
Astronomical Twilight 4:59 AM HST 7:41 PM HST
Moon 4:30 PM HST (9/16) 3:29 AM HST (9/16)
Length of Visible Light 12h 58m
Length of Day
12h 14m
Waxing Gibbous, 92% of the Moon is Illuminated
Sep 16
Waxing Gibbous
Sep 19
Full
Sep 26
Last Quarter
Oct 4
New
Oct 11
First Quarter

Hourly Weather History & Observations

Time (HST) Temp. Heat Index Dew Point Humidity Pressure Visibility Wind Dir Wind Speed Gust Speed Precip Events Conditions
12:54 AM 77.0 °F - 68.0 °F 74% 29.98 in 10.0 mi ENE 18.4 mph 27.6 mph N/A   Clear
1:54 AM 75.9 °F - 68.0 °F 76% 29.98 in 10.0 mi NE 13.8 mph - N/A   Clear
2:54 AM 75.9 °F - 66.0 °F 71% 29.98 in 10.0 mi ENE 9.2 mph 20.7 mph N/A   Clear
3:54 AM 77.0 °F - 68.0 °F 74% 29.98 in 10.0 mi NE 16.1 mph 24.2 mph N/A   Partly Cloudy
4:54 AM 75.9 °F - 68.0 °F 76% 29.99 in 10.0 mi NE 13.8 mph - N/A   Clear
5:54 AM 75.9 °F - 69.1 °F 79% 30.02 in 10.0 mi NE 11.5 mph - N/A   Mostly Cloudy
6:54 AM 77.0 °F - 70.0 °F 79% 30.03 in 10.0 mi NNE 10.4 mph - 0.00 in   Partly Cloudy
7:54 AM 77.0 °F - 69.1 °F 76% 30.04 in 10.0 mi NE 11.5 mph - 0.00 in   Scattered Clouds
8:54 AM 82.9 °F 85.8 °F 68.0 °F 60% 30.05 in 10.0 mi ENE 17.3 mph 24.2 mph 0.01 in   Partly Cloudy
9:54 AM 84.9 °F 87.6 °F 66.9 °F 55% 30.05 in 10.0 mi ENE 18.4 mph 27.6 mph N/A   Partly Cloudy
10:54 AM 87.1 °F 90.6 °F 68.0 °F 53% 30.05 in 10.0 mi NE 19.6 mph 28.8 mph N/A   Clear
11:54 AM 87.1 °F 89.2 °F 66.0 °F 49% 30.04 in 10.0 mi ENE 21.9 mph 29.9 mph N/A   Partly Cloudy
12:54 PM 89.1 °F 90.3 °F 64.0 °F 43% 30.02 in 10.0 mi NE 24.2 mph 32.2 mph N/A   Clear
1:54 PM 89.1 °F 92.1 °F 66.9 °F 48% 29.99 in 10.0 mi NE 28.8 mph - N/A   Partly Cloudy
2:54 PM 88.0 °F 88.7 °F 63.0 °F 43% 29.97 in 10.0 mi NE 27.6 mph 38.0 mph N/A   Partly Cloudy
3:54 PM 86.0 °F 88.2 °F 66.0 °F 51% 29.97 in 10.0 mi NE 28.8 mph 36.8 mph N/A   Scattered Clouds
4:54 PM 82.9 °F 84.6 °F 64.9 °F 54% 29.99 in 10.0 mi NE 24.2 mph 31.1 mph N/A   Scattered Clouds
6:54 PM 77.0 °F - 69.1 °F 76% 30.03 in 10.0 mi NE 15.0 mph - 0.00 in   Scattered Clouds
7:54 PM 75.9 °F - 70.0 °F 82% 30.04 in 10.0 mi ENE 9.2 mph - 0.00 in   Partly Cloudy
8:54 PM 75.9 °F - 69.1 °F 79% 30.07 in 10.0 mi ENE 15.0 mph 18.4 mph 0.00 in   Scattered Clouds
9:54 PM 73.9 °F - 69.1 °F 85% 30.08 in 10.0 mi NE 10.4 mph - 0.00 in   Partly Cloudy
10:54 PM 73.0 °F - 70.0 °F 90% 30.08 in 10.0 mi NNE 5.8 mph - 0.01 in Rain Light Rain
11:54 PM 73.9 °F - 70.0 °F 87% 30.06 in 10.0 mi NE 9.2 mph - 0.00 in Rain Light Rain